Location: Seattle
(47.6064°N, 122.3308°W)
Time: 05:43:20
(UTC-08:00)

S-56A Canister/Altair - Pass Details

Date: 30 November 2020
Orbit: 633 x 2499 km, 38.9° (Epoch: 23 January)

Event Time Altitude Azimuth Distance (km) Brightness Sun altitude
Rises 16:26:17 0° 191° (S) 6,066 12.8 -1.7°
Reaches altitude 10° 16:32:37 10° 173° (S) 4,846 11.9 -2.6°
Maximum altitude 16:39:34 16° 142° (SE) 3,993 11.1 -3.7°
Drops below altitude 10° 16:45:34 10° 109° (ESE) 4,086 10.8 -4.5°
Enters shadow 16:49:54 - 90° (E) 4,685 11.0 -5.2°
Sets 16:50:05 0° 90° (E) 4,719 - -5.2°
